FW5354 Weather Reports


Display with metric or nautical units.
time (UTC)temp
F
wind
direction
speed
MPH
gust
MPH
rain 1hr
in
rain 24hr
in
rain mn
in
humidity
%
barometer
mb
20260510010021 80 103 1.0 4.0 0.00 0.00 0.00 56 1006.4
20260510004526 81 103 0.0 2.0 0.00 0.00 0.00 54 1006.1
20260510003120 81 100 2.0 4.0 0.00 0.00 0.00 51 1006.3
20260510001523 82 95 2.0 8.0 0.00 0.00 0.00 53 1006.1
20260510000028 87 124 0.0 2.0 0.00 0.00 0.00 62 1005.9
20260509234521 88 142 0.0 0.0 0.00 0.00 0.00 63 1005.6
20260509233122 88 142 0.0 0.0 0.00 0.00 0.00 59 1005.6
20260509231515 88 142 0.0 1.0 0.00 0.00 0.00 60 1005.4
20260509230016 89 142 0.0 1.0 0.00 0.00 0.00 58 1005.4
20260509224514 90 172 0.0 1.0 0.00 0.00 0.00 58 1005.2
20260509223115 93 150 0.0 0.0 0.00 0.00 0.00 55 1005.4
20260509221519 93 163 0.0 0.0 0.00 0.00 0.00 53 1005.1
20260509220019 93 119 0.0 0.0 0.00 0.00 0.00 55 1005.1
20260509214513 93 130 0.0 1.0 0.00 0.00 0.00 55 1005.2
20260509213112 91 148 0.0 2.0 0.00 0.00 0.00 57 1005.2
20260509211510 92 163 0.0 3.0 0.00 0.00 0.00 54 1005.4
20260509210009 90 171 0.0 2.0 0.00 0.00 0.00 59 1005.5
20260509204506 91 185 0.0 3.0 0.00 0.00 0.00 60 1005.8
20260509203116 91 146 0.0 3.0 0.00 0.00 0.00 59 1006.1
20260509201504 91 139 0.0 3.0 0.00 0.00 0.00 61 1006.2
20260509200001 91 136 0.0 0.0 0.00 0.02 0.00 63 1006.4
20260509194557 88 146 0.0 3.0 0.00 0.02 0.00 67 1006.5
20260509193101 88 157 0.0 3.0 0.00 0.02 0.00 68 1006.7
20260509191606 87 141 0.0 2.0 0.00 0.02 0.00 68 1006.7
20260509190056 88 169 0.0 2.0 0.00 0.02 0.00 66 1006.8
20260509184558 89 118 0.0 0.0 0.00 0.02 0.00 68 1006.9
20260509183055 86 117 0.0 0.0 0.00 0.02 0.00 69 1007.3
20260509181548 86 167 0.0 2.0 0.00 0.02 0.00 71 1007.3
20260509180044 86 110 0.0 1.0 0.00 0.02 0.00 70 1007.8
20260509174559 85 108 0.0 2.0 0.00 0.02 0.00 71 1007.9
20260509173049 85 103 0.0 4.0 0.00 0.02 0.00 73 1007.9
20260509171539 85 118 0.0 4.0 0.00 0.02 0.00 73 1007.9
20260509170035 84 98 1.0 2.0 0.00 0.02 0.00 73 1007.8
20260509164532 82 115 0.0 0.0 0.00 0.02 0.00 75 1007.8
20260509163037 80 125 0.0 0.0 0.00 0.02 0.00 76 1008.1
20260509161530 79 125 0.0 0.0 0.00 0.02 0.00 75 1008.3
20260509160027 78 125 0.0 0.0 0.00 0.02 0.02 73 1008.3
20260509154526 78 128 0.0 0.0 0.00 0.02 0.02 73 1008.5
20260509153034 78 128 0.0 0.0 0.00 0.02 0.02 75 1008.4
20260509151525 79 128 0.0 0.0 0.00 0.02 0.02 72 1008.4
20260509150022 78 128 0.0 0.0 0.00 0.02 0.02 71 1008.3
20260509144529 78 121 0.0 0.0 0.00 0.02 0.02 69 1007.8
20260509143022 77 121 0.0 0.0 0.00 0.02 0.02 65 1007.7
20260509141522 77 121 0.0 0.0 0.00 0.02 0.02 62 1007.8
20260509140021 76 121 0.0 0.0 0.00 0.02 0.02 60 1007.2
20260509134521 76 121 0.0 0.0 0.00 0.02 0.02 59 1007.8
20260509133021 76 121 0.0 0.0 0.00 0.02 0.02 57 1008.1
20260509131517 75 121 0.0 0.0 0.00 0.02 0.02 55 1008.3
20260509130029 75 121 0.0 0.0 0.00 0.02 0.02 54 1008.6
20260509124519 75 121 0.0 0.0 0.00 0.02 0.02 54 1008.1
20260509123018 74 121 0.0 1.0 0.00 0.02 0.02 55 1008.0
20260509121523 74 121 0.0 0.0 0.00 0.02 0.02 55 1007.9
20260509120014 74 184 0.0 0.0 0.00 0.02 0.02 56 1007.8
20260509114515 74 184 0.0 0.0 0.00 0.02 0.02 56 1007.8
20260509113015 74 184 0.0 0.0 0.00 0.02 0.02 56 1008.1
20260509111515 74 184 0.0 1.0 0.00 0.02 0.02 56 1008.1
20260509110015 74 184 0.0 0.0 0.00 0.02 0.02 56 1008.1
20260509104514 74 103 0.0 0.0 0.00 0.02 0.02 57 1007.7
20260509103013 74 102 0.0 0.0 0.00 0.02 0.02 58 1007.7
20260509101519 74 102 0.0 0.0 0.00 0.02 0.02 58 1007.5
20260509100012 74 102 0.0 0.0 0.00 0.02 0.02 58 1006.7
20260509094511 75 209 0.0 0.0 0.00 0.02 0.02 60 1006.9
20260509093010 75 209 0.0 0.0 0.00 0.02 0.02 60 1007.3
20260509091512 75 209 0.0 0.0 0.00 0.02 0.02 60 1007.6
20260509090011 75 209 0.0 0.0 0.00 0.02 0.02 60 1007.6
20260509084510 75 209 0.0 0.0 0.00 0.02 0.02 60 1007.5
20260509083028 75 209 0.0 0.0 0.00 0.02 0.02 61 1007.6
20260509081511 75 209 0.0 0.0 0.00 0.02 0.02 61 1007.5
20260509080009 75 209 0.0 1.0 0.00 0.02 0.02 61 1007.3
20260509074509 75 209 0.0 1.0 0.00 0.02 0.02 61 1007.5
20260509073015 75 209 0.0 1.0 0.00 0.02 0.02 61 1007.4
20260509071506 75 104 0.0 1.0 0.00 0.02 0.02 61 1007.2
20260509070006 75 104 0.0 0.0 0.00 0.02 0.02 62 1007.4
20260509064506 74 104 0.0 0.0 0.00 0.02 0.02 62 1007.5
20260509063013 74 104 0.0 0.0 0.00 0.02 0.02 62 1007.7
20260509061505 74 104 0.0 0.0 0.00 0.02 0.02 63 1007.9
20260509060005 74 104 0.0 0.0 0.00 0.02 0.02 63 1008.2
20260509054504 74 104 0.0 0.0 0.00 0.02 0.02 63 1008.0
20260509053006 74 118 0.0 1.0 0.00 0.02 0.02 63 1008.0
20260509051501 74 120 0.0 0.0 0.00 0.02 0.02 63 1008.0
20260509050002 74 119 0.0 1.0 0.00 0.02 0.02 64 1008.0
20260509044700 74 126 0.0 1.0 0.00 0.02 0.02 64 1008.2
20260509043139 74 137 0.0 0.0 0.00 0.02 0.02 64 1008.2
20260509041600 74 81 0.0 0.0 0.00 0.02 0.02 64 1008.2
20260509034558 74 107 0.0 2.0 0.00 0.02 0.02 65 1007.7
20260509033057 74 113 0.0 2.0 0.00 0.02 0.02 66 1007.5
20260509031601 74 119 0.0 4.0 0.00 0.02 0.02 67 1007.6
20260509030112 74 121 0.0 1.0 0.00 0.02 0.02 68 1007.6
20260509024558 74 107 0.0 2.0 0.00 0.02 0.02 69 1007.3
20260509023058 74 147 0.0 1.0 0.00 0.02 0.02 70 1007.1
20260509021554 74 105 0.0 4.0 0.00 0.02 0.02 70 1007.1
20260509020104 74 101 0.0 3.0 0.00 0.02 0.02 70 1006.9
20260509014554 74 111 0.0 2.0 0.00 0.02 0.02 71 1007.0
20260509013057 74 136 0.0 4.0 0.00 0.02 0.02 71 1006.9
20260509011557 74 153 0.0 3.0 0.00 0.02 0.02 72 1007.0
20260509010052 74 118 1.0 4.0 0.00 0.02 0.02 72 1006.7